Location: Casa Fontane
(44.7667°N, 10.5000°E)
Time: 17:51:47
(UTC+00:00)

Daily predictions for brighter satellites

Satellite Brightness Start Highest point End
(mag) Time Altitude Azimuth Time Altitude Azimuth Time Altitude Azimuth
Sich 1 3.3 17:29:09 10° S 17:33:32 81° W 17:37:59 10° N
Cosmos 1461 3.5 17:30:51 10° SW 17:35:34 73° NW 17:40:20 10° NNE
ATLAS 5 CENTAUR R/B 4.4 17:18:44 10° SW 17:36:12 56° NW 17:40:41 10° NNE
Nadezhda 3 Rocket 4.4 17:30:09 10° N 17:36:15 45° ENE 17:42:17 10° SSE
Meteor 1-25 Rocket 4.3 17:31:45 10° S 17:37:26 63° E 17:43:03 10° NNE
Cosmos 2074 Rocket 4.0 17:35:16 10° S 17:41:31 75° E 17:47:45 10° NNE
Cosmos 2154 Rocket 4.2 17:35:53 10° SSE 17:41:48 49° E 17:47:44 10° NNE
YAOGAN 1 2.7 17:38:55 10° SSE 17:43:07 54° ENE 17:47:21 10° N
Helios 1A Rocket 3.7 17:39:48 10° SE 17:43:24 31° ENE 17:46:59 10° N
Abrixas rocket 2.3 17:41:00 10° W 17:43:24 43° NNW 17:45:49 10° ENE
APEX 2.9 17:44:16 10° NW 17:47:01 59° WSW 17:49:41 10° SSE
Cosmos 2219 Rocket 3.8 17:45:53 10° ESE 17:48:11 13° E 17:50:30 10° ENE
COSMO-SKYMED 1 3.2 17:46:05 10° N 17:50:24 62° WNW 17:54:40 10° SSW
GP-B 4.1 17:46:54 10° SE 17:50:33 26° ENE 17:54:15 10° NNE
Cosmos 1992 Rocket 4.1 17:49:03 10° S 17:54:08 55° ESE 17:59:16 10° NNE
SL-16 R/B 2.2 17:49:03 10° SSW 17:54:44 86° ESE 18:00:27 10° NNE
Cosmos 2263 Rocket 3.2 17:50:23 10° NW 17:55:45 50° WSW 18:01:05 10° S
ARGOS 3.2 17:50:54 10° SSE 17:56:12 58° ENE 18:01:32 10° N
Meteor 1-18 Rocket 4.4 17:50:37 10° N 17:56:32 63° ENE 18:02:22 10° SSE
Cosmos 968 Rocket 3.5 17:51:24 10° NNW 17:56:42 89° ENE 18:01:58 10° SSE
USA 234 3.8 17:53:52 10° ENE 17:59:51 37° SE 18:05:48 10° SSW
Cosmos 1486 Rocket 4.0 17:55:08 10° NNW 18:00:28 84° ENE 18:05:47 10° SSE
Cosmos 1515 3.6 17:56:57 10° N 18:00:47 72° E 18:04:34 10° SSE
Okean 1 3.2 17:56:50 10° N 18:00:53 70° E 18:04:53 10° SSE
Cosmos 1633 Rocket 3.2 17:57:38 10° S 18:02:03 80° W 18:06:31 10° N
Cosmos 2184 Rocket 4.1 17:55:57 10° S 18:02:07 81° W 18:08:21 10° N
OBJECT-B 3.0 18:03:20 11° NE 18:03:20 11° NE 18:03:45 10° NE
SeaSat 1 2.7 17:58:27 10° NE 18:03:12 46° ESE 18:07:56 10° S
Okean 1-7 3.9 18:00:33 10° NNE 18:04:20 28° ENE 18:08:04 10° SE
H-2A R/B 2.3 18:02:06 10° S 18:07:32 81° WSW 18:13:02 10° NNW
CZ-4 R/B 1.7 18:03:44 10° S 18:07:34 68° WSW 18:11:28 10° NNW
CZ-2C R/B 2.8 18:03:18 10° NNE 18:08:38 50° E 18:13:48 10° S
SAR-Lupe-4 3.5 18:07:35 10° NNE 18:11:10 69° ESE 18:14:43 10° S
Cosmos 2237 4.2 18:08:22 10° SSW 18:14:02 67° ESE 18:19:44 10° NNE
Gbstr 26 Del rocket 4.3 18:09:54 10° WNW 18:14:04 38° N 18:18:27 13° ENE
SL-4 R/B 2.9 18:13:43 10° NW 18:16:52 29° N 18:18:38 18° ENE
USA 186 3.5 18:25:07 13° NNE 18:25:07 13° NNE 18:25:35 10° NNE
ATLAS CENTAUR R/B 0.9 18:20:15 10° SSW 18:23:51 69° ESE 18:26:57 14° NE
FALCON 9 DEB 3.4 18:21:32 10° NW 18:24:54 51° NNE 18:26:13 30° E
Cosmos 1354 Rocket 3.9 18:21:55 10° NNW 18:27:11 72° ENE 18:32:23 10° SSE
Okean-O 3.4 18:23:04 10° S 18:27:24 54° W 18:31:46 10° NNW
ERS-2 2.5 18:24:47 10° N 18:28:25 66° WNW 18:32:02 10° SSW
Cosmos 44 Rocket 3.9 18:23:26 10° NW 18:28:37 61° WSW 18:33:42 10° SSE
CSL-04 Rocket 3.7 18:23:06 10° SSE 18:28:40 87° ENE 18:34:13 10° NNW
Cosmos 2366 rocket 4.5 18:23:07 10° SSE 18:28:49 37° E 18:34:34 10° NNE
CSL-04 Debris 4.2 18:24:35 10° SSE 18:30:01 86° WSW 18:35:32 10° NNW
SAR-Lupe-1 4.5 18:27:00 10° N 18:30:35 65° WNW 18:34:08 10° SSW
Cosmos 1844 Rocket 2.6 18:25:21 10° NNW 18:30:56 70° ENE 18:36:09 12° SE
Cosmos 2084 Rocket 3.7 18:26:43 10° NW 18:31:05 75° SW 18:34:58 14° SSE
Cosmos 1666 2.9 18:29:43 10° SSE 18:33:15 44° E 18:36:50 10° NNE
HJ-1C 4.3 18:32:09 10° S 18:35:22 50° W 18:38:37 10° NNW
Cosmos 1777 Rocket 4.5 18:30:51 10° N 18:35:48 40° ENE 18:37:59 27° ESE
Cosmos 2341 Rocket 3.9 18:30:53 10° S 18:37:08 68° E 18:43:22 10° NNE
Cosmos 1503 Rocket 4.0 18:32:11 10° NNW 18:37:24 81° WSW 18:42:33 10° SSE
Meteor 1-5 Rocket 4.0 18:32:14 10° S 18:37:30 65° E 18:42:58 10° NNE
Cosmos 2333 4.4 18:32:35 10° S 18:37:57 48° ESE 18:43:25 10° NE
Cosmos 1470 Rocket 4.4 18:36:56 10° SSW 18:41:18 54° WNW 18:45:42 10° N
Cosmos 1844 3.7 18:36:59 10° NNW 18:42:46 72° ENE 18:46:58 19° SE
Okean 3 4.1 18:39:03 10° N 18:42:56 34° ENE 18:42:56 34° ENE
Cosmos 2360 Rocket 2.2 18:38:27 10° SSW 18:44:06 85° WNW 18:49:49 10° NNE
Ariane Rocket 3.4 18:42:04 28° ESE 18:44:08 42° ENE 18:48:56 10° N
Cosmos 2278 Rocket 3.5 18:43:40 10° N 18:48:02 22° NE 18:48:36 22° ENE
Cosmos 1727 Rocket 4.4 18:45:25 10° N 18:51:11 39° ENE 18:52:56 32° ESE
Cosmos 1500 4.2 18:48:26 10° SSW 18:52:02 46° WNW 18:55:39 10° N
Cosmos 2333 Rocket 2.3 18:48:45 10° S 18:54:14 52° ESE 18:59:46 10° NE
Meteor 2-4 Rocket 4.0 18:48:48 10° NNW 18:54:38 73° W 19:00:32 10° S
Cosmos 1703 Rocket 3.5 18:50:24 10° N 18:54:49 82° W 18:59:10 10° S
Cosmos 2218 Rocket 4.0 18:49:26 10° S 18:55:43 62° E 19:02:01 10° NNE
SL-08 RB Rocket 4.4 18:51:36 10° S 18:55:59 53° W 19:00:29 10° NNW
Resurs 01 Rocket 3.2 19:12:41 23° NNE 19:12:41 23° NNE 19:14:45 10° N
Cosmos 864 Rocket 4.3 19:06:22 10° S 19:12:30 77° E 19:18:43 10° N
Cosmos 2322 Rocket 3.9 19:09:30 10° WSW 19:14:27 31° NW 19:19:27 10° N
Lacrosse 4 Rocket 2.4 19:11:50 10° SSW 19:14:28 35° S 19:14:28 35° S
Cosmos 1959 Rocket 4.3 19:11:50 10° S 19:17:55 87° E 19:24:05 10° N
SME Rocket 4.0 19:10:40 10° NNE 19:18:51 86° ESE 19:24:04 10° SSW
Cosmos 192 4.3 19:16:33 10° SSW 19:21:27 84° WNW 19:26:24 10° NNE
SJ-6B 3.3 19:22:30 51° SSW 19:23:15 62° W 19:27:17 10° NNW
COSMOS 2428 2.6 19:18:39 10° SSW 19:24:15 66° ESE 19:24:51 61° ENE
MOS 1 4.2 19:25:34 37° S 19:27:59 84° WSW 19:33:43 10° NNW
ASTEX 1 3.3 19:23:07 10° N 19:28:02 82° W 19:30:11 34° SSW
Meteor 1-23 Rocket 4.1 19:24:54 10° N 19:30:27 69° ENE 19:30:27 69° ENE
Cosmos 2219 Rocket 2.0 19:25:39 10° SSW 19:31:14 88° ESE 19:36:53 10° NNE
Meteor 1-11 Rocket 3.8 19:25:30 10° SSW 19:31:14 79° W 19:36:53 10° N
OBJECT-B 3.2 19:36:24 21° NW 19:36:24 21° NW 19:37:42 10° NNW
Resurs 1-3 4.2 19:38:47 51° NNW 19:38:47 51° NNW 19:42:06 10° NNW
SeaSat 1 4.3 19:36:19 10° N 19:40:32 29° NW 19:44:44 10° WSW
SJ 16-02 2.9 19:37:23 10° NNW 19:39:35 28° N 19:39:35 28° N
USA 234 3.4 19:39:54 32° NE 19:43:09 73° NNW 19:49:40 10° WSW
Cosmos 1066 Rocket 4.4 19:38:39 10° NNW 19:44:22 73° W 19:45:41 53° SSW
Cosmos 2322 4.4 19:45:48 10° SW 19:51:22 53° WNW 19:57:00 10° NNE
BREEZE-M DEB (TANK) 3.7 19:49:10 10° WNW 19:51:09 42° NW 19:51:09 42° NW
SL-4 R/B 4.4 19:53:16 10° WNW 19:54:13 17° WNW 19:54:13 17° WNW
Gbstr 26 Del rocket 4.4 19:57:03 10° WNW 20:00:59 42° NNW 20:00:59 42° NNW
ATLAS CENTAUR R/B 3.9 20:00:58 10° WNW 20:03:08 15° NW 20:03:10 15° NW
NOSS 3-3 (A) 4.4 20:11:25 10° NW 20:18:42 79° NNE 20:18:42 79° NNE
NOSS 3-3 (C) 4.4 20:11:31 10° NW 20:18:47 78° NNE 20:18:47 78° NNE
Cosmos 2278 Rocket 3.4 20:27:01 10° NNW 20:30:28 38° NW 20:30:28 38° NW
Cosmos 2333 Rocket 4.0 20:33:54 10° WSW 20:38:46 28° NW 20:43:42 10° N
Cosmos 1943 Rocket 4.5 20:46:59 10° N 20:48:24 17° N 20:48:24 17° N
